Location: Newark
(40.9833°N, 0.0333°W)
Time: 03:40:54
(UTC+00:00)

Transit 2A Rocket - Pass Details

Date: 31 October 2020
Orbit: 588 x 914 km, 66.7° (Epoch: 26 November)

Event Time Altitude Azimuth Distance (km) Brightness Sun altitude
Rises 15:38:53 0° 343° (NNW) 3,322 8.1 12.5°
Reaches altitude 10° 15:43:40 10° 19° (NNE) 2,288 7.1 11.7°
Maximum altitude 15:44:56 11° 33° (NNE) 2,205 6.9 11.5°
Drops below altitude 10° 15:46:10 10° 48° (NE) 2,232 6.8 11.3°
Sets 15:50:34 0° 86° (E) 3,050 7.5 10.6°
